Weather History for Bloomington, IN

Change the Weather History Date:

Tuesday, September 17, 2013

  Actual Average Record
Temperature  
Mean Temperature 63 °F 65 °F  
Max Temperature 75 °F 78 °F 84 °F (2006)
Min Temperature 51 °F 53 °F 41 °F (1999)
Degree Days  
Heating Degree Days 2 2  
Month to date heating degree days 22 18  
Since 1 July heating degree days 36 25  
Cooling Degree Days 0 3  
Month to date cooling degree days 114 74  
Year to date cooling degree days 955 891  
Growing Degree Days 12 (Base 50)    
Moisture  
Dew Point 52 °F    
Average Humidity 70    
Maximum Humidity 93    
Minimum Humidity 46    
Precipitation  
Precipitation 0.00 in 0.10 in 1.13 in (2012)
Month to date precipitation 0.43 1.86  
Year to date precipitation 30.75 35.05  
Sea Level Pressure  
Sea Level Pressure 30.24 in    
Wind  
Wind Speed 4 mph (ESE)    
Max Wind Speed 14 mph    
Max Gust Speed 17 mph    
Visibility 10 miles    
Events      
T = Trace of Precipitation, MM = Missing Value Source: NWS Daily Summary

Daily Weather History Graph

Daily Weather History Graph

Search for Another Location

Airport:

Trip Planner

Search our weather history database for the weather conditions in past years. The results will help you decide how hot, cold, wet, or windy it might be!

Date:

Astronomy

Sep. 17, 2013 Rise Set
Actual Time 7:29 AM EDT 7:51 PM EDT
Civil Twilight 7:03 AM EDT 8:17 PM EDT
Nautical Twilight 6:31 AM EDT 8:49 PM EDT
Astronomical Twilight 5:59 AM EDT 9:21 PM EDT
Moon 6:37 PM EDT (9/17) 5:24 AM EDT (9/17)
Length of Visible Light 13h 14m
Length of Day
12h 21m
Waxing Gibbous, 96% of the Moon is Illuminated
Sep 17
Waxing Gibbous
Sep 19
Full
Sep 26
Last Quarter
Oct 4
New
Oct 11
First Quarter

Hourly Weather History & Observations

Time (EDT) Temp. Dew Point Humidity Pressure Visibility Wind Dir Wind Speed Gust Speed Precip Events Conditions
12:53 AM 55.9 °F 50.0 °F 80% 30.28 in 10.0 mi ENE 4.6 mph - N/A   Clear
1:53 AM 55.0 °F 48.9 °F 80% 30.28 in 10.0 mi Calm Calm - N/A   Clear
2:53 AM 55.0 °F 48.9 °F 80% 30.29 in 10.0 mi East 4.6 mph - N/A   Clear
3:53 AM 54.0 °F 50.0 °F 86% 30.28 in 10.0 mi East 3.5 mph - N/A   Clear
4:53 AM 54.0 °F 50.0 °F 86% 30.28 in 10.0 mi East 4.6 mph - N/A   Clear
5:53 AM 54.0 °F 50.0 °F 86% 30.27 in 10.0 mi ESE 3.5 mph - N/A   Clear
6:53 AM 52.0 °F 48.9 °F 89% 30.28 in 10.0 mi ESE 4.6 mph - N/A   Clear
7:53 AM 52.0 °F 48.9 °F 89% 30.29 in 10.0 mi East 3.5 mph - N/A   Clear
8:53 AM 55.0 °F 51.1 °F 86% 30.30 in 10.0 mi ESE 5.8 mph - N/A   Clear
9:53 AM 57.0 °F 52.0 °F 83% 30.30 in 10.0 mi East 5.8 mph - N/A   Clear
10:53 AM 61.0 °F 52.0 °F 72% 30.30 in 10.0 mi ESE 6.9 mph - N/A   Clear
11:53 AM 66.0 °F 53.1 °F 63% 30.29 in 10.0 mi SE 9.2 mph - N/A   Clear
12:53 PM 70.0 °F 53.1 °F 55% 30.27 in 10.0 mi East 10.4 mph - N/A   Clear
1:53 PM 71.1 °F 50.0 °F 47% 30.24 in 10.0 mi ESE 8.1 mph 17.3 mph N/A   Clear
2:53 PM 70.0 °F 52.0 °F 53% 30.22 in 10.0 mi ESE 5.8 mph - N/A   Clear
3:53 PM 72.0 °F 50.0 °F 46% 30.19 in 10.0 mi ESE 6.9 mph - N/A   Clear
4:53 PM 73.0 °F 51.1 °F 46% 30.17 in 10.0 mi East 5.8 mph - N/A   Clear
5:53 PM 72.0 °F 51.1 °F 48% 30.17 in 10.0 mi ESE 4.6 mph - N/A   Clear
6:53 PM 71.1 °F 52.0 °F 51% 30.17 in 10.0 mi Calm Calm - N/A   Clear
7:53 PM 64.0 °F 55.9 °F 75% 30.16 in 10.0 mi Calm Calm - N/A   Clear
8:53 PM 60.1 °F 55.9 °F 86% 30.16 in 10.0 mi Calm Calm - N/A   Clear
9:53 PM 55.9 °F 53.1 °F 90% 30.16 in 10.0 mi Calm Calm - N/A   Clear
10:53 PM 57.0 °F 55.0 °F 93% 30.16 in 9.0 mi Calm Calm - N/A   Overcast
11:53 PM 55.0 °F 53.1 °F 93% 30.15 in 7.0 mi Calm Calm - N/A   Clear